Location: Kelshall
(52.0000°N, 0.0500°W)
Time: 12:04:38
(UTC+00:00)

Cosmos 1464 Rocket - Pass Details

Date: 18 September 2020
Orbit: 953 x 1000 km, 82.9° (Epoch: 21 October)

Event Time Altitude Azimuth Distance (km) Brightness Sun altitude
Rises 19:43:21 0° 188° (S) 3,617 6.8 -15.2°
Reaches altitude 10° 19:45:49 10° 189° (S) 2,677 6.2 -15.6°
Maximum altitude 19:51:57 89° 274° (W) 966 4.0 -16.4°
Drops below altitude 10° 19:58:11 10° 10° (N) 2,713 6.5 -17.3°
Sets 20:00:42 0° 11° (N) 3,670 7.2 -17.6°
